Location: Poigny-la-Forêt
(48.6876°N, 1.7701°E)
Time: 06:15:20
(UTC+02:00)

ISS - Pass Details

Date: 25 March 2019
Orbit: 408 x 410 km, 51.6° (Epoch: 20 April)

Event Time Altitude Azimuth Distance (km) Brightness Sun altitude
Rises 21:47:59 0° 271° (W) 2,336 0.9 -24.7°
Reaches altitude 10° 21:50:06 10° 277° (W) 1,475 -0.2 -25.0°
Enters shadow 21:52:02 30° 294° (WNW) 770 -1.9 -25.3°
